Probability
13 15 15 14 13 13 13 11 8 7 10 17 26 31 29 16 5 3 3 1 0 0 0 0 0 0 0 0 0 1 2 2 2 1 0 1 2 2
14 14 14 13 12 13 13 11 9 8 10 16 22 23 20 12 5 3 2 1 0 0 0 0 0 0 0 0 0 0 1 1 1 0 0 0 1 1
12 13 13 11 10 11 12 11 9 8 9 14 16 15 12 9 5 3 2 0 0 0 0 0 0 0 0 0 0 0 0 0 0 0 0 0 0 0
9 10 10 8 7 10 11 10 7 7 8 11 12 11 10 8 5 3 1 0 0 0 0 0 0 0 0 0 0 0 0 0 0 0 0 0 0 0
10 9 8 7 6 8 10 9 6 5 6 7 8 8 8 6 4 3 1 0 0 0 0 0 0 0 0 0 0 0 0 0 0 0 0 0 0 0
10 8 7 6 5 5 7 7 4 3 3 4 4 5 5 4 3 1 0 0 0 0 0 0 0 0 0 0 0 0 0 0 0 0 0 0 0 0
7 6 5 4 2 2 3 4 2 1 2 2 2 2 3 3 3 1 1 0 0 0 0 0 0 0 0 0 0 0 0 0 0 0 0 0 0 0
3 3 3 1 0 1 1 1 1 1 1 1 0 1 1 2 3 2 1 0 0 0 0 0 0 0 0 0 0 0 0 0 0 0 0 0 0 0
1 1 1 1 1 2 1 0 0 0 0 0 0 0 1 1 2 2 1 0 0 0 0 0 0 0 0 0 0 0 0 0 0 0 0 0 0 0
0 0 1 1 1 2 2 0 0 0 0 0 0 0 0 0 0 0 0 0 0 0 0 0 0 0 0 0 0 0 0 0 0 0 0 0 0 0
0 0 1 1 1 1 1 0 0 0 0 0 0 0 0 0 0 0 0 0 0 0 0 0 0 0 0 0 0 0 0 0 0 0 0 0 0 0
0 0 0 0 0 0 0 0 0 0 0 0 0 0 0 0 0 0 0 0 0 0 0 0 0 0 0 0 0 0 0 0 0 0 0 0 0 0
0 0 0 0 0 0 0 0 0 0 0 0 0 0 0 0 0 0 0 0 0 0 0 0 0 0 0 0 0 0 0 0 0 0 0 0 0 0
0 0 0 0 0 0 0 0 0 0 0 0 0 0 0 0 0 0 0 0 0 0 0 0 0 0 0 0 0 0 0 0 0 0 0 0 0 0
0 0 0 0 0 0 0 0 0 0 0 0 0 0 0 0 0 0 0 0 0 0 0 0 0 0 0 0 0 0 0 0 0 0 0 0 0 0
0 0 0 0 0 0 0 0 0 0 0 0 0 0 0 0 0 0 0 0 0 0 0 0 0 0 0 0 0 0 0 0 0 0 0 0 0 0
0 0 0 0 0 0 0 0 0 0 0 0 0 0 0 0 0 0 0 0 0 0 0 0 0 0 0 0 0 0 0 0 0 0 0 0 0 0
0 0 0 0 0 0 0 0 0 0 0 0 0 0 0 0 0 0 0 0 0 0 0 0 0 0 0 0 0 0 0 0 0 0 0 0 0 0
0 0 0 0 0 0 0 0 0 0 0 0 0 0 0 0 0 0 0 0 0 0 0 0 0 0 0 0 0 0 0 0 0 0 0 0 0 0
0 0 0 0 0 0 0 0 0 0 0 0 0 0 0 0 0 0 0 0 0 0 0 0 0 0 0 0 0 0 0 0 0 0 0 0 0 0
0 0 0 0 0 0 0 0 0 0 0 0 0 0 0 0 0 0 0 0 0 0 0 0 0 0 0 0 0 0 0 0 0 0 0 0 0 0
0 0 0 0 0 0 0 0 0 0 0 0 0 0 0 0 0 0 0 0 0 0 0 0 0 0 0 0 0 0 0 0 0 0 0 0 0 0
0 0 0 0 0 0 0 0 0 0 0 0 0 0 0 0 0 0 0 0 0 0 0 0 0 0 0 0 0 0 0 0 0 0 0 0 0 0
Wind_Speed
7 7 6 6 5 6 5 5 5 5 4 3 1 2 3 4 7 6 7 9 10 9 8 9 9 9 9 8 8 7 6 5 4 4 5 7 9 10
6 6 6 6 5 5 5 5 6 5 4 2 2 3 4 6 7 7 9 12 11 11 11 11 11 11 11 11 10 10 9 9 8 7 7 6 6 6
7 7 6 6 5 5 5 4 5 5 4 2 1 3 5 7 8 7 7 7 7 12 13 13 13 13 13 13 13 13 13 13 13 13 12 12 10 9
7 6 6 5 5 4 4 4 4 4 5 5 3 3 5 8 8 8 7 8 7 11 13 14 14 14 14 14 14 14 14 15 15 14 14 14 13 12
6 5 5 5 4 3 4 3 3 4 5 6 5 4 4 6 8 8 9 7 9 10 12 13 14 15 14 14 14 14 13 13 13 13 13 13 13 12
5 5 4 4 4 4 3 3 3 4 5 6 6 5 5 5 6 7 7 6 7 8 9 10 13 14 14 14 14 13 12 12 12 12 11 11 10 10
5 4 2 1 1 2 2 3 4 4 5 6 7 6 5 5 5 5 7 6 6 6 7 6 6 6 7 10 12 12 11 11 10 10 10 9 9 8
5 3 3 3 3 3 4 4 5 6 7 6 6 7 6 5 5 6 7 6 4 4 5 6 5 5 5 5 8 10 10 10 9 9 8 8 7 6
5 5 5 5 5 5 7 8 7 7 7 6 8 7 6 5 6 6 5 5 4 5 5 6 6 6 5 6 9 9 9 8 8 7 7 6 5 5
7 6 5 6 6 7 8 8 7 6 6 6 7 7 7 5 5 6 7 6 5 4 5 5 6 6 6 4 7 8 8 8 7 7 6 6 4 3
7 7 7 7 9 10 9 10 10 8 11 13 13 12 12 10 6 5 5 5 5 3 2 4 5 6 4 4 5 7 7 7 7 6 6 6 5 3
6 7 10 10 12 10 10 11 11 9 10 11 10 10 8 8 7 4 3 5 6 3 1 3 5 5 4 3 4 5 4 4 5 5 6 7 8 4
6 6 7 14 13 10 9 9 12 11 9 8 7 6 5 5 5 5 4 4 5 4 2 2 3 3 4 4 3 4 5 4 3 3 3 6 8 6
4 6 9 14 13 11 9 13 15 12 7 7 6 5 5 6 6 6 7 8 7 6 4 3 3 2 4 5 4 3 3 3 3 3 3 5 5 7
1 6 14 14 12 9 12 15 12 6 6 7 6 6 6 7 6 6 6 7 7 7 7 6 4 3 4 4 4 3 2 2 3 3 2 2 3 3
3 9 15 13 9 10 10 8 5 4 6 6 7 7 6 5 5 5 5 5 6 5 5 6 6 6 5 5 4 3 3 2 2 2 1 1 2 4
6 6 7 7 7 7 6 5 4 4 6 7 7 7 6 5 5 5 5 5 5 5 3 3 4 5 5 4 3 3 2 2 2 1 0 0 2 4
8 7 8 8 9 8 7 6 5 6 6 7 6 6 5 5 5 4 4 5 6 5 5 4 3 3 2 4 4 2 2 2 1 0 1 0 1 3
6 7 7 8 8 8 7 6 6 6 6 6 6 5 5 5 5 4 4 4 5 5 4 4 3 3 4 3 1 2 1 1 1 1 1 1 0 1
6 7 8 8 7 7 7 6 7 7 6 6 6 5 5 5 5 4 4 5 5 4 4 3 3 2 2 3 3 2 3 2 1 0 1 2 1 2
7 7 7 7 8 7 7 7 7 6 6 6 6 5 5 5 5 5 5 6 5 4 5 4 2 2 1 0 1 3 3 5 4 3 1 1 1 1
6 6 6 7 7 7 7 7 8 7 7 6 6 5 5 5 6 6 6 4 3 5 6 4 3 2 2 2 1 3 4 4 5 6 5 4 3 2
6 5 5 6 7 7 7 8 9 7 6 6 6 5 5 5 5 5 6 5 5 6 6 6 5 4 4 3 2 2 3 4 4 4 5 10 12 11
Wind_Direction
272 275 272 267 262 257 250 240 238 248 246 217 196 158 134 116 136 123 115 107 105 103 101 98 94 89 85 83 81 79 82 97 118 152 185 195 203 205
268 268 272 270 265 259 252 243 231 230 236 195 173 151 139 131 123 111 108 104 98 101 98 94 92 89 85 81 80 79 77 78 83 93 105 117 133 153
274 274 272 272 267 265 261 248 234 217 214 190 158 148 136 125 119 119 121 106 100 98 98 94 91 88 85 82 80 79 77 75 75 78 83 88 93 102
273 274 278 278 270 265 259 250 235 208 184 170 154 142 133 131 132 129 122 112 106 101 99 97 93 89 85 82 79 77 76 76 76 76 78 81 84 87
270 275 276 278 273 265 256 244 223 194 170 157 151 137 128 136 133 126 117 115 111 111 101 96 95 92 88 84 81 78 77 78 78 78 77 76 78 81
262 268 270 273 265 254 240 222 185 161 154 149 143 136 130 133 130 129 126 125 125 123 106 104 100 93 91 89 88 85 82 82 81 80 80 79 77 77
247 246 246 261 269 244 210 180 161 149 147 143 140 136 136 141 141 140 133 126 123 127 125 124 118 105 97 92 90 91 90 87 85 85 84 82 82 80
230 205 186 163 126 121 121 126 136 146 147 143 142 144 145 144 139 141 137 136 132 143 137 137 129 112 105 95 101 100 97 94 90 87 85 85 85 85
219 204 193 164 166 141 120 109 102 111 129 137 135 134 132 135 131 133 136 135 125 145 128 119 118 108 102 109 120 112 107 101 97 91 85 82 85 91
214 197 174 165 165 148 133 115 100 93 110 111 113 111 109 109 111 121 120 110 101 105 118 123 128 121 117 121 135 127 120 111 101 87 74 62 56 77
203 179 164 161 157 152 133 121 110 98 88 96 101 104 101 96 101 120 130 128 121 108 97 116 130 127 128 132 147 146 135 124 110 92 71 46 30 61
190 168 161 151 153 153 140 131 124 122 117 108 100 101 103 97 88 92 123 139 133 120 104 107 140 139 130 141 148 158 151 142 128 106 79 53 36 48
178 162 150 143 146 142 136 130 132 129 123 120 117 113 106 96 85 72 63 109 120 107 111 117 142 143 129 139 151 165 162 158 159 136 105 80 63 58
186 155 141 143 140 139 133 134 138 135 130 129 128 126 116 99 89 82 78 80 87 87 51 49 92 103 117 125 126 123 120 131 141 149 147 136 109 91
177 141 139 142 135 133 139 146 151 148 140 138 132 120 110 110 106 97 88 84 77 71 56 41 52 67 89 106 110 115 112 97 88 99 121 147 151 134
137 138 138 144 139 134 144 157 168 153 138 128 119 114 117 125 126 126 117 107 96 81 63 57 55 60 72 80 92 95 91 91 80 73 66 118 129 117
135 143 146 148 147 147 159 175 169 143 126 121 124 134 143 148 147 147 139 134 126 124 116 94 83 83 77 65 84 85 89 93 97 68 2 129 130 126
145 156 155 157 156 158 167 168 156 141 133 135 142 148 146 143 140 144 149 144 141 141 145 147 136 117 92 49 34 62 75 72 63 332 347 70 123 131
159 165 164 163 160 162 164 160 152 142 141 146 148 144 140 141 145 150 142 130 127 129 138 147 154 161 167 151 332 337 95 84 24 12 1 354 299 156
184 173 171 168 164 164 163 158 147 144 148 145 142 142 144 144 146 145 136 131 129 130 123 104 85 72 88 118 143 200 223 167 145 126 328 322 345 112
193 182 177 171 167 163 159 150 144 147 150 141 142 146 147 147 147 141 128 135 142 141 127 116 128 130 85 60 169 167 193 211 195 182 198 252 280 276
199 187 181 170 162 155 149 146 147 148 150 146 144 150 150 148 142 137 141 156 158 137 128 136 162 178 208 226 211 175 177 191 227 230 233 221 212 224
199 186 171 166 155 147 148 150 150 151 154 153 151 156 152 147 148 150 159 168 151 144 149 162 180 198 205 208 219 215 205 194 187 194 228 231 231 239